owner,sensor,date,latitude,longitude,vertical_datum,wind_speed,wind_to_direction,wind_speed_of_gust,qcFlag 
LUMCON,ioos:station:LUMCON:102:1,2019-04-01T00:00:00Z,29.1870,-90.6093,0.0,10.3,355.0,10.7,'1111122,1111122,1111122' 
LUMCON,ioos:station:LUMCON:102:1,2019-04-01T00:15:00Z,29.1870,-90.6093,0.0,9.9,3.0,10.1,'1111122,1111122,1111122' 
LUMCON,ioos:station:LUMCON:102:1,2019-04-01T00:30:00Z,29.1870,-90.6093,0.0,9.9,342.0,9.9,'1111122,1111122,1111122' 
LUMCON,ioos:station:LUMCON:102:1,2019-04-01T00:45:00Z,29.1870,-90.6093,0.0,9.8,350.0,10.1,'1111122,1111122,1111122' 
LUMCON,ioos:station:LUMCON:102:1,2019-04-01T01:00:00Z,29.1870,-90.6093,0.0,8.0,353.0,8.6,'1111122,1111122,1111122' 
LUMCON,ioos:station:LUMCON:102:1,2019-04-01T01:15:00Z,29.1870,-90.6093,0.0,7.6,342.0,7.9,'1111122,1111122,1111122' 
LUMCON,ioos:station:LUMCON:102:1,2019-04-01T01:30:00Z,29.1870,-90.6093,0.0,7.8,336.0,8.1,'1111122,1111122,1111122' 
LUMCON,ioos:station:LUMCON:102:1,2019-04-01T01:45:00Z,29.1870,-90.6093,0.0,8.8,337.0,9.6,'1111122,1111122,1111122' 
LUMCON,ioos:station:LUMCON:102:1,2019-04-01T02:00:00Z,29.1870,-90.6093,0.0,8.5,351.0,8.6,'1111122,1111122,1111122' 
LUMCON,ioos:station:LUMCON:102:1,2019-04-01T02:15:00Z,29.1870,-90.6093,0.0,9.2,355.0,9.9,'1111122,1111122,1111122' 
LUMCON,ioos:station:LUMCON:102:1,2019-04-01T02:30:00Z,29.1870,-90.6093,0.0,10.6,349.0,11.0,'1111122,1111122,1111122' 
LUMCON,ioos:station:LUMCON:102:1,2019-04-01T02:45:00Z,29.1870,-90.6093,0.0,9.3,355.0,9.4,'1111122,1111122,1111122' 
LUMCON,ioos:station:LUMCON:102:1,2019-04-01T03:00:00Z,29.1870,-90.6093,0.0,9.4,348.0,9.5,'1111122,1111122,1111122' 
LUMCON,ioos:station:LUMCON:102:1,2019-04-01T03:15:00Z,29.1870,-90.6093,0.0,9.0,349.0,9.5,'1111122,1111122,1111122' 
LUMCON,ioos:station:LUMCON:102:1,2019-04-01T03:30:00Z,29.1870,-90.6093,0.0,9.5,6.0,10.2,'1111122,1111122,1111122' 
LUMCON,ioos:station:LUMCON:102:1,2019-04-01T03:45:00Z,29.1870,-90.6093,0.0,10.2,16.0,10.4,'1111122,1111122,1111122' 
LUMCON,ioos:station:LUMCON:102:1,2019-04-01T04:00:00Z,29.1870,-90.6093,0.0,11.0,14.0,11.7,'1111122,1111122,1111122' 
LUMCON,ioos:station:LUMCON:102:1,2019-04-01T04:15:00Z,29.1870,-90.6093,0.0,9.3,4.0,9.8,'1111122,1111122,1111122' 
LUMCON,ioos:station:LUMCON:102:1,2019-04-01T04:30:00Z,29.1870,-90.6093,0.0,9.6,4.0,9.9,'1111122,1111122,1111122' 
LUMCON,ioos:station:LUMCON:102:1,2019-04-01T04:45:00Z,29.1870,-90.6093,0.0,9.2,12.0,9.6,'1111122,1111122,1111122' 
LUMCON,ioos:station:LUMCON:102:1,2019-04-01T05:00:00Z,29.1870,-90.6093,0.0,10.7,22.0,10.9,'1111122,1111122,1111122' 
LUMCON,ioos:station:LUMCON:102:1,2019-04-01T05:15:00Z,29.1870,-90.6093,0.0,10.8,14.0,11.6,'1111122,1111122,1111122' 
LUMCON,ioos:station:LUMCON:102:1,2019-04-01T05:30:00Z,29.1870,-90.6093,0.0,11.9,32.0,12.0,'1111122,1111122,1111122' 
LUMCON,ioos:station:LUMCON:102:1,2019-04-01T05:45:00Z,29.1870,-90.6093,0.0,11.7,18.0,12.0,'1111122,1111122,1111122' 
LUMCON,ioos:station:LUMCON:102:1,2019-04-01T06:00:00Z,29.1870,-90.6093,0.0,11.3,16.0,11.7,'1111122,1111122,1111122' 
LUMCON,ioos:station:LUMCON:102:1,2019-04-01T06:15:00Z,29.1870,-90.6093,0.0,9.9,14.0,10.2,'1111122,1111122,1111122' 
LUMCON,ioos:station:LUMCON:102:1,2019-04-01T06:30:00Z,29.1870,-90.6093,0.0,10.4,27.0,11.0,'1111122,1111122,1111122' 
LUMCON,ioos:station:LUMCON:102:1,2019-04-01T06:45:00Z,29.1870,-90.6093,0.0,9.6,34.0,10.1,'1111122,1111122,1111122' 
LUMCON,ioos:station:LUMCON:102:1,2019-04-01T07:00:00Z,29.1870,-90.6093,0.0,8.6,38.0,8.8,'1111122,1111122,1111122' 
LUMCON,ioos:station:LUMCON:102:1,2019-04-01T07:15:00Z,29.1870,-90.6093,0.0,10.6,47.0,11.6,'1111122,1111122,1111122' 
LUMCON,ioos:station:LUMCON:102:1,2019-04-01T07:30:00Z,29.1870,-90.6093,0.0,8.8,31.0,9.1,'1111122,1111122,1111122' 
LUMCON,ioos:station:LUMCON:102:1,2019-04-01T07:45:00Z,29.1870,-90.6093,0.0,6.9,35.0,7.1,'1111122,1111122,1111122' 
LUMCON,ioos:station:LUMCON:102:1,2019-04-01T08:00:00Z,29.1870,-90.6093,0.0,6.7,11.0,7.3,'1111122,1111122,1111122' 
LUMCON,ioos:station:LUMCON:102:1,2019-04-01T08:15:00Z,29.1870,-90.6093,0.0,7.4,21.0,7.8,'1111122,1111122,1111122' 
LUMCON,ioos:station:LUMCON:102:1,2019-04-01T08:30:00Z,29.1870,-90.6093,0.0,9.8,8.0,9.9,'1111122,1111122,1111122' 
LUMCON,ioos:station:LUMCON:102:1,2019-04-01T08:45:00Z,29.1870,-90.6093,0.0,9.8,18.0,10.1,'1111122,1111122,1111122' 
LUMCON,ioos:station:LUMCON:102:1,2019-04-01T09:00:00Z,29.1870,-90.6093,0.0,10.7,16.0,11.1,'1111122,1111122,1111122' 
LUMCON,ioos:station:LUMCON:102:1,2019-04-01T09:15:00Z,29.1870,-90.6093,0.0,9.3,22.0,9.5,'1111122,1111122,1111122' 
LUMCON,ioos:station:LUMCON:102:1,2019-04-01T09:30:00Z,29.1870,-90.6093,0.0,8.2,15.0,8.4,'1111122,1111122,1111122' 
LUMCON,ioos:station:LUMCON:102:1,2019-04-01T09:45:00Z,29.1870,-90.6093,0.0,9.1,22.0,9.3,'1111122,1111122,1111122' 
LUMCON,ioos:station:LUMCON:102:1,2019-04-01T10:00:00Z,29.1870,-90.6093,0.0,9.6,13.0,9.8,'1111122,1111122,1111122' 
LUMCON,ioos:station:LUMCON:102:1,2019-04-01T10:15:00Z,29.1870,-90.6093,0.0,8.5,18.0,9.5,'1111122,1111122,1111122' 
LUMCON,ioos:station:LUMCON:102:1,2019-04-01T10:30:00Z,29.1870,-90.6093,0.0,9.4,33.0,9.8,'1111122,1111122,1111122' 
LUMCON,ioos:station:LUMCON:102:1,2019-04-01T10:45:00Z,29.1870,-90.6093,0.0,9.1,23.0,9.4,'1111122,1111122,1111122' 
LUMCON,ioos:station:LUMCON:102:1,2019-04-01T11:00:00Z,29.1870,-90.6093,0.0,8.6,24.0,8.8,'1111122,1111122,1111122' 
LUMCON,ioos:station:LUMCON:102:1,2019-04-01T11:15:00Z,29.1870,-90.6093,0.0,8.4,29.0,9.0,'1111122,1111122,1111122' 
LUMCON,ioos:station:LUMCON:102:1,2019-04-01T11:30:00Z,29.1870,-90.6093,0.0,9.7,27.0,9.9,'1111122,1111122,1111122' 
LUMCON,ioos:station:LUMCON:102:1,2019-04-01T11:45:00Z,29.1870,-90.6093,0.0,8.8,2.0,10.0,'1111122,1111122,1111122' 
LUMCON,ioos:station:LUMCON:102:1,2019-04-01T12:00:00Z,29.1870,-90.6093,0.0,8.3,16.0,8.9,'1111122,1111122,1111122' 
LUMCON,ioos:station:LUMCON:102:1,2019-04-01T12:15:00Z,29.1870,-90.6093,0.0,9.9,16.0,10.4,'1111122,1111122,1111122' 
LUMCON,ioos:station:LUMCON:102:1,2019-04-01T12:30:00Z,29.1870,-90.6093,0.0,10.4,21.0,10.9,'1111122,1111122,1111122' 
LUMCON,ioos:station:LUMCON:102:1,2019-04-01T12:45:00Z,29.1870,-90.6093,0.0,9.5,21.0,9.8,'1111122,1111122,1111122' 
LUMCON,ioos:station:LUMCON:102:1,2019-04-01T13:00:00Z,29.1870,-90.6093,0.0,9.1,20.0,9.4,'1111122,1111122,1111122' 
LUMCON,ioos:station:LUMCON:102:1,2019-04-01T13:15:00Z,29.1870,-90.6093,0.0,9.0,23.0,9.4,'1111122,1111122,1111122' 
LUMCON,ioos:station:LUMCON:102:1,2019-04-01T13:30:00Z,29.1870,-90.6093,0.0,7.9,26.0,8.1,'1111122,1111122,1111122' 
LUMCON,ioos:station:LUMCON:102:1,2019-04-01T13:45:00Z,29.1870,-90.6093,0.0,9.5,18.0,9.6,'1111122,1111122,1111122' 
LUMCON,ioos:station:LUMCON:102:1,2019-04-01T14:00:00Z,29.1870,-90.6093,0.0,8.5,25.0,8.7,'1111122,1111122,1111122' 
LUMCON,ioos:station:LUMCON:102:1,2019-04-01T14:15:00Z,29.1870,-90.6093,0.0,7.2,32.0,7.5,'1111122,1111122,1111122' 
LUMCON,ioos:station:LUMCON:102:1,2019-04-01T14:30:00Z,29.1870,-90.6093,0.0,7.8,34.0,8.2,'1111122,1111122,1111122' 
LUMCON,ioos:station:LUMCON:102:1,2019-04-01T14:45:00Z,29.1870,-90.6093,0.0,7.8,33.0,8.0,'1111122,1111122,1111122' 
LUMCON,ioos:station:LUMCON:102:1,2019-04-01T15:00:00Z,29.1870,-90.6093,0.0,8.1,26.0,8.2,'1111122,1111122,1111122' 
LUMCON,ioos:station:LUMCON:102:1,2019-04-01T15:15:00Z,29.1870,-90.6093,0.0,7.8,34.0,8.3,'1111122,1111122,1111122' 
LUMCON,ioos:station:LUMCON:102:1,2019-04-01T15:30:00Z,29.1870,-90.6093,0.0,7.0,21.0,7.4,'1111122,1111122,1111122' 
LUMCON,ioos:station:LUMCON:102:1,2019-04-01T15:45:00Z,29.1870,-90.6093,0.0,4.1,27.0,4.3,'1111122,1111122,1111122' 
LUMCON,ioos:station:LUMCON:102:1,2019-04-01T16:00:00Z,29.1870,-90.6093,0.0,5.9,24.0,6.6,'1111122,1111122,1111122' 
LUMCON,ioos:station:LUMCON:102:1,2019-04-01T16:15:00Z,29.1870,-90.6093,0.0,6.9,25.0,7.2,'1111122,1111122,1111122' 
LUMCON,ioos:station:LUMCON:102:1,2019-04-01T16:30:00Z,29.1870,-90.6093,0.0,6.9,29.0,7.1,'1111122,1111122,1111122' 
LUMCON,ioos:station:LUMCON:102:1,2019-04-01T16:45:00Z,29.1870,-90.6093,0.0,5.3,20.0,5.5,'1111122,1111122,1111122' 
LUMCON,ioos:station:LUMCON:102:1,2019-04-01T17:00:00Z,29.1870,-90.6093,0.0,5.6,25.0,5.8,'1111122,1111122,1111122' 
LUMCON,ioos:station:LUMCON:102:1,2019-04-01T17:15:00Z,29.1870,-90.6093,0.0,4.7,31.0,5.2,'1111122,1111122,1111122' 
LUMCON,ioos:station:LUMCON:102:1,2019-04-01T17:30:00Z,29.1870,-90.6093,0.0,5.2,35.0,5.4,'1111122,1111122,1111122' 
LUMCON,ioos:station:LUMCON:102:1,2019-04-01T17:45:00Z,29.1870,-90.6093,0.0,3.9,27.0,4.0,'1111122,1111122,1111122' 
LUMCON,ioos:station:LUMCON:102:1,2019-04-01T18:00:00Z,29.1870,-90.6093,0.0,3.7,37.0,3.8,'1111122,1111122,1111122' 
LUMCON,ioos:station:LUMCON:102:1,2019-04-01T18:15:00Z,29.1870,-90.6093,0.0,4.8,28.0,5.0,'1111122,1111122,1111122' 
LUMCON,ioos:station:LUMCON:102:1,2019-04-01T18:30:00Z,29.1870,-90.6093,0.0,3.8,1.0,4.1,'1111122,1111122,1111122' 
LUMCON,ioos:station:LUMCON:102:1,2019-04-01T18:45:00Z,29.1870,-90.6093,0.0,3.4,18.0,3.5,'1111122,1111122,1111122' 
LUMCON,ioos:station:LUMCON:102:1,2019-04-01T19:00:00Z,29.1870,-90.6093,0.0,4.3,18.0,4.4,'1111122,1111122,1111122' 
LUMCON,ioos:station:LUMCON:102:1,2019-04-01T19:15:00Z,29.1870,-90.6093,0.0,3.1,9.0,3.3,'1111122,1111122,1111122' 
LUMCON,ioos:station:LUMCON:102:1,2019-04-01T19:30:00Z,29.1870,-90.6093,0.0,3.8,0.0,3.9,'1111122,1114422,1111122' 
LUMCON,ioos:station:LUMCON:102:1,2019-04-01T19:45:00Z,29.1870,-90.6093,0.0,4.2,33.0,4.4,'1111122,1111122,1111122' 
LUMCON,ioos:station:LUMCON:102:1,2019-04-01T20:00:00Z,29.1870,-90.6093,0.0,4.0,42.0,4.1,'1111122,1111122,1111122' 
LUMCON,ioos:station:LUMCON:102:1,2019-04-01T20:15:00Z,29.1870,-90.6093,0.0,3.0,33.0,3.2,'1111122,1111122,1111122' 
LUMCON,ioos:station:LUMCON:102:1,2019-04-01T20:30:00Z,29.1870,-90.6093,0.0,3.4,27.0,3.5,'1111122,1111122,1111122' 
LUMCON,ioos:station:LUMCON:102:1,2019-04-01T20:45:00Z,29.1870,-90.6093,0.0,2.4,44.0,2.6,'1111122,1111122,1111122' 
LUMCON,ioos:station:LUMCON:102:1,2019-04-01T21:00:00Z,29.1870,-90.6093,0.0,2.6,39.0,2.9,'1111122,1111122,1111122' 
LUMCON,ioos:station:LUMCON:102:1,2019-04-01T21:15:00Z,29.1870,-90.6093,0.0,1.9,46.0,3.0,'1111122,1111122,1111122' 
LUMCON,ioos:station:LUMCON:102:1,2019-04-01T21:30:00Z,29.1870,-90.6093,0.0,4.2,73.0,4.4,'1111122,1111122,1111122' 
LUMCON,ioos:station:LUMCON:102:1,2019-04-01T21:45:00Z,29.1870,-90.6093,0.0,6.3,84.0,6.6,'1111122,1111122,1111122' 
LUMCON,ioos:station:LUMCON:102:1,2019-04-01T22:00:00Z,29.1870,-90.6093,0.0,6.1,90.0,6.5,'1111122,1111122,1111122' 
LUMCON,ioos:station:LUMCON:102:1,2019-04-01T22:15:00Z,29.1870,-90.6093,0.0,4.9,80.0,5.2,'1111122,1111122,1111122' 
LUMCON,ioos:station:LUMCON:102:1,2019-04-01T22:30:00Z,29.1870,-90.6093,0.0,4.8,65.0,5.0,'1111122,1111122,1111122' 
LUMCON,ioos:station:LUMCON:102:1,2019-04-01T22:45:00Z,29.1870,-90.6093,0.0,5.6,56.0,5.9,'1111122,1111122,1111122' 
LUMCON,ioos:station:LUMCON:102:1,2019-04-01T23:00:00Z,29.1870,-90.6093,0.0,5.0,65.0,5.3,'1111122,1111122,1111122' 
LUMCON,ioos:station:LUMCON:102:1,2019-04-01T23:15:00Z,29.1870,-90.6093,0.0,5.5,50.0,5.6,'1111122,1111122,1111122' 
LUMCON,ioos:station:LUMCON:102:1,2019-04-01T23:30:00Z,29.1870,-90.6093,0.0,4.2,53.0,4.5,'1111122,1111122,1111122' 
LUMCON,ioos:station:LUMCON:102:1,2019-04-01T23:45:00Z,29.1870,-90.6093,0.0,2.6,44.0,2.7,'1111122,1111122,1111122' 
LUMCON,ioos:station:LUMCON:102:1,2019-04-02T00:00:00Z,29.1870,-90.6093,0.0,3.2,45.0,3.4,'1111122,1111122,1111122' 
LUMCON,ioos:station:LUMCON:102:1,2019-04-02T00:15:00Z,29.1870,-90.6093,0.0,2.4,19.0,2.5,'1111122,1111122,1111122' 
LUMCON,ioos:station:LUMCON:102:1,2019-04-02T00:30:00Z,29.1870,-90.6093,0.0,3.0,15.0,3.1,'1111122,1111122,1111122' 
LUMCON,ioos:station:LUMCON:102:1,2019-04-02T00:45:00Z,29.1870,-90.6093,0.0,2.7,24.0,2.8,'1111122,1111122,1111122' 
LUMCON,ioos:station:LUMCON:102:1,2019-04-02T01:00:00Z,29.1870,-90.6093,0.0,2.3,0.0,2.4,'1111122,1114422,1111122' 
LUMCON,ioos:station:LUMCON:102:1,2019-04-02T01:15:00Z,29.1870,-90.6093,0.0,3.6,15.0,3.7,'1111122,1111122,1111122' 
LUMCON,ioos:station:LUMCON:102:1,2019-04-02T01:30:00Z,29.1870,-90.6093,0.0,4.0,14.0,4.1,'1111122,1111122,1111122' 
LUMCON,ioos:station:LUMCON:102:1,2019-04-02T01:45:00Z,29.1870,-90.6093,0.0,3.4,333.0,3.5,'1111122,1111122,1111122' 
LUMCON,ioos:station:LUMCON:102:1,2019-04-02T02:00:00Z,29.1870,-90.6093,0.0,3.4,335.0,3.5,'1111122,1111122,1111122' 
LUMCON,ioos:station:LUMCON:102:1,2019-04-02T02:15:00Z,29.1870,-90.6093,0.0,3.5,348.0,3.6,'1111122,1111122,1111122' 
LUMCON,ioos:station:LUMCON:102:1,2019-04-02T02:30:00Z,29.1870,-90.6093,0.0,1.4,332.0,1.7,'1111122,1111122,1111122' 
LUMCON,ioos:station:LUMCON:102:1,2019-04-02T02:45:00Z,29.1870,-90.6093,0.0,2.0,295.0,2.1,'1111122,1111122,1111122' 
LUMCON,ioos:station:LUMCON:102:1,2019-04-02T03:00:00Z,29.1870,-90.6093,0.0,1.6,350.0,1.7,'1111122,1111122,1111122' 
LUMCON,ioos:station:LUMCON:102:1,2019-04-02T03:15:00Z,29.1870,-90.6093,0.0,1.6,10.0,1.8,'1111122,1111122,1111122' 
LUMCON,ioos:station:LUMCON:102:1,2019-04-02T03:30:00Z,29.1870,-90.6093,0.0,1.6,13.0,1.7,'1111122,1111122,1111122' 
LUMCON,ioos:station:LUMCON:102:1,2019-04-02T03:45:00Z,29.1870,-90.6093,0.0,2.0,14.0,2.1,'1111122,1111122,1111122' 
LUMCON,ioos:station:LUMCON:102:1,2019-04-02T04:00:00Z,29.1870,-90.6093,0.0,2.1,357.0,2.2,'1111122,1111122,1111122' 
LUMCON,ioos:station:LUMCON:102:1,2019-04-02T04:15:00Z,29.1870,-90.6093,0.0,6.4,341.0,6.5,'1111122,1111122,1111122' 
LUMCON,ioos:station:LUMCON:102:1,2019-04-02T04:30:00Z,29.1870,-90.6093,0.0,6.9,337.0,7.1,'1111122,1111122,1111122' 
LUMCON,ioos:station:LUMCON:102:1,2019-04-02T04:45:00Z,29.1870,-90.6093,0.0,6.5,337.0,6.8,'1111122,1111122,1111122' 
LUMCON,ioos:station:LUMCON:102:1,2019-04-02T05:00:00Z,29.1870,-90.6093,0.0,4.8,18.0,5.0,'1111122,1111122,1111122' 
LUMCON,ioos:station:LUMCON:102:1,2019-04-02T05:15:00Z,29.1870,-90.6093,0.0,4.1,46.0,4.2,'1111122,1111122,1111122' 
LUMCON,ioos:station:LUMCON:102:1,2019-04-02T05:30:00Z,29.1870,-90.6093,0.0,4.0,52.0,4.1,'1111122,1111122,1111122' 
LUMCON,ioos:station:LUMCON:102:1,2019-04-02T05:45:00Z,29.1870,-90.6093,0.0,3.4,36.0,3.5,'1111122,1111122,1111122' 
LUMCON,ioos:station:LUMCON:102:1,2019-04-02T06:00:00Z,29.1870,-90.6093,0.0,3.8,350.0,4.0,'1111122,1111122,1111122' 
LUMCON,ioos:station:LUMCON:102:1,2019-04-02T06:15:00Z,29.1870,-90.6093,0.0,7.3,326.0,7.6,'1111122,1111122,1111122' 
LUMCON,ioos:station:LUMCON:102:1,2019-04-02T06:30:00Z,29.1870,-90.6093,0.0,8.2,328.0,8.5,'1111122,1111122,1111122' 
LUMCON,ioos:station:LUMCON:102:1,2019-04-02T06:45:00Z,29.1870,-90.6093,0.0,8.2,315.0,8.7,'1111122,1111122,1111122' 
LUMCON,ioos:station:LUMCON:102:1,2019-04-02T07:00:00Z,29.1870,-90.6093,0.0,6.7,329.0,6.8,'1111122,1111122,1111122' 
LUMCON,ioos:station:LUMCON:102:1,2019-04-02T07:15:00Z,29.1870,-90.6093,0.0,7.9,324.0,8.2,'1111122,1111122,1111122' 
LUMCON,ioos:station:LUMCON:102:1,2019-04-02T07:30:00Z,29.1870,-90.6093,0.0,8.5,324.0,8.9,'1111122,1111122,1111122' 
LUMCON,ioos:station:LUMCON:102:1,2019-04-02T07:45:00Z,29.1870,-90.6093,0.0,8.7,335.0,9.3,'1111122,1111122,1111122' 
LUMCON,ioos:station:LUMCON:102:1,2019-04-02T08:00:00Z,29.1870,-90.6093,0.0,10.2,330.0,10.8,'1111122,1111122,1111122' 
LUMCON,ioos:station:LUMCON:102:1,2019-04-02T08:15:00Z,29.1870,-90.6093,0.0,9.9,328.0,10.1,'1111122,1111122,1111122' 
LUMCON,ioos:station:LUMCON:102:1,2019-04-02T08:30:00Z,29.1870,-90.6093,0.0,8.3,336.0,8.7,'1111122,1111122,1111122' 
LUMCON,ioos:station:LUMCON:102:1,2019-04-02T08:45:00Z,29.1870,-90.6093,0.0,8.9,329.0,9.7,'1111122,1111122,1111122' 
LUMCON,ioos:station:LUMCON:102:1,2019-04-02T09:00:00Z,29.1870,-90.6093,0.0,7.6,333.0,7.9,'1111122,1111122,1111122' 
LUMCON,ioos:station:LUMCON:102:1,2019-04-02T09:15:00Z,29.1870,-90.6093,0.0,7.4,333.0,7.8,'1111122,1111122,1111122' 
LUMCON,ioos:station:LUMCON:102:1,2019-04-02T09:30:00Z,29.1870,-90.6093,0.0,8.7,342.0,9.0,'1111122,1111122,1111122' 
LUMCON,ioos:station:LUMCON:102:1,2019-04-02T09:45:00Z,29.1870,-90.6093,0.0,9.3,346.0,9.9,'1111122,1111122,1111122' 
LUMCON,ioos:station:LUMCON:102:1,2019-04-02T10:00:00Z,29.1870,-90.6093,0.0,8.4,346.0,8.6,'1111122,1111122,1111122' 
LUMCON,ioos:station:LUMCON:102:1,2019-04-02T10:15:00Z,29.1870,-90.6093,0.0,7.1,344.0,7.3,'1111122,1111122,1111122' 
LUMCON,ioos:station:LUMCON:102:1,2019-04-02T10:30:00Z,29.1870,-90.6093,0.0,7.6,334.0,8.0,'1111122,1111122,1111122' 
LUMCON,ioos:station:LUMCON:102:1,2019-04-02T10:45:00Z,29.1870,-90.6093,0.0,7.5,350.0,7.8,'1111122,1111122,1111122' 
LUMCON,ioos:station:LUMCON:102:1,2019-04-02T11:00:00Z,29.1870,-90.6093,0.0,8.5,347.0,8.7,'1111122,1111122,1111122' 
LUMCON,ioos:station:LUMCON:102:1,2019-04-02T11:15:00Z,29.1870,-90.6093,0.0,8.1,344.0,8.3,'1111122,1111122,1111122' 
LUMCON,ioos:station:LUMCON:102:1,2019-04-02T11:30:00Z,29.1870,-90.6093,0.0,7.9,343.0,8.2,'1111122,1111122,1111122' 
LUMCON,ioos:station:LUMCON:102:1,2019-04-02T11:45:00Z,29.1870,-90.6093,0.0,6.3,354.0,6.8,'1111122,1111122,1111122' 
LUMCON,ioos:station:LUMCON:102:1,2019-04-02T12:00:00Z,29.1870,-90.6093,0.0,6.7,0.0,6.9,'1111122,1114422,1111122' 
LUMCON,ioos:station:LUMCON:102:1,2019-04-02T12:15:00Z,29.1870,-90.6093,0.0,7.9,344.0,8.1,'1111122,1111122,1111122' 
LUMCON,ioos:station:LUMCON:102:1,2019-04-02T12:30:00Z,29.1870,-90.6093,0.0,7.0,352.0,7.2,'1111122,1111122,1111122' 
LUMCON,ioos:station:LUMCON:102:1,2019-04-02T12:45:00Z,29.1870,-90.6093,0.0,8.5,352.0,8.7,'1111122,1111122,1111122' 
LUMCON,ioos:station:LUMCON:102:1,2019-04-02T13:00:00Z,29.1870,-90.6093,0.0,7.8,347.0,8.0,'1111122,1111122,1111122' 
LUMCON,ioos:station:LUMCON:102:1,2019-04-02T13:15:00Z,29.1870,-90.6093,0.0,7.4,357.0,7.5,'1111122,1111122,1111122' 
LUMCON,ioos:station:LUMCON:102:1,2019-04-02T13:30:00Z,29.1870,-90.6093,0.0,6.4,0.0,6.7,'1111122,1114422,1111122' 
LUMCON,ioos:station:LUMCON:102:1,2019-04-02T13:45:00Z,29.1870,-90.6093,0.0,6.2,350.0,6.4,'1111122,1111122,1111122' 
LUMCON,ioos:station:LUMCON:102:1,2019-04-02T14:00:00Z,29.1870,-90.6093,0.0,7.1,0.0,7.6,'1111122,1114422,1111122' 
LUMCON,ioos:station:LUMCON:102:1,2019-04-02T14:15:00Z,29.1870,-90.6093,0.0,5.7,354.0,6.2,'1111122,1111122,1111122' 
LUMCON,ioos:station:LUMCON:102:1,2019-04-02T14:30:00Z,29.1870,-90.6093,0.0,4.6,350.0,4.7,'1111122,1111122,1111122' 
LUMCON,ioos:station:LUMCON:102:1,2019-04-02T14:45:00Z,29.1870,-90.6093,0.0,5.2,0.0,5.6,'1111122,1114422,1111122' 
LUMCON,ioos:station:LUMCON:102:1,2019-04-02T15:00:00Z,29.1870,-90.6093,0.0,5.6,357.0,5.8,'1111122,1111122,1111122' 
LUMCON,ioos:station:LUMCON:102:1,2019-04-02T15:15:00Z,29.1870,-90.6093,0.0,4.5,10.0,4.9,'1111122,1111122,1111122' 
LUMCON,ioos:station:LUMCON:102:1,2019-04-02T15:30:00Z,29.1870,-90.6093,0.0,4.4,8.0,4.5,'1111122,1111122,1111122' 
LUMCON,ioos:station:LUMCON:102:1,2019-04-02T15:45:00Z,29.1870,-90.6093,0.0,5.9,4.0,6.1,'1111122,1111122,1111122' 
LUMCON,ioos:station:LUMCON:102:1,2019-04-02T16:00:00Z,29.1870,-90.6093,0.0,4.5,350.0,4.8,'1111122,1111122,1111122' 
LUMCON,ioos:station:LUMCON:102:1,2019-04-02T16:15:00Z,29.1870,-90.6093,0.0,4.5,355.0,4.7,'1111122,1111122,1111122' 
LUMCON,ioos:station:LUMCON:102:1,2019-04-02T16:30:00Z,29.1870,-90.6093,0.0,4.3,0.0,4.8,'1111122,1114422,1111122' 
LUMCON,ioos:station:LUMCON:102:1,2019-04-02T16:45:00Z,29.1870,-90.6093,0.0,4.1,16.0,4.5,'1111122,1111122,1111122' 
LUMCON,ioos:station:LUMCON:102:1,2019-04-02T17:00:00Z,29.1870,-90.6093,0.0,4.3,8.0,4.6,'1111122,1111122,1111122' 
LUMCON,ioos:station:LUMCON:102:1,2019-04-02T17:15:00Z,29.1870,-90.6093,0.0,3.2,357.0,3.3,'1111122,1111122,1111122' 
LUMCON,ioos:station:LUMCON:102:1,2019-04-02T17:30:00Z,29.1870,-90.6093,0.0,2.3,356.0,2.3,'1111122,1111122,1111122' 
LUMCON,ioos:station:LUMCON:102:1,2019-04-02T17:45:00Z,29.1870,-90.6093,0.0,3.1,22.0,3.2,'1111122,1111122,1111122' 
LUMCON,ioos:station:LUMCON:102:1,2019-04-02T18:00:00Z,29.1870,-90.6093,0.0,2.4,18.0,2.6,'1111122,1111122,1111122' 
LUMCON,ioos:station:LUMCON:102:1,2019-04-02T18:15:00Z,29.1870,-90.6093,0.0,2.7,28.0,4.3,'1111122,1111122,1111122' 
LUMCON,ioos:station:LUMCON:102:1,2019-04-02T18:30:00Z,29.1870,-90.6093,0.0,2.4,94.0,2.6,'1111122,1111122,1111122' 
LUMCON,ioos:station:LUMCON:102:1,2019-04-02T18:45:00Z,29.1870,-90.6093,0.0,2.1,85.0,2.5,'1111122,1111122,1111122' 
LUMCON,ioos:station:LUMCON:102:1,2019-04-02T19:00:00Z,29.1870,-90.6093,0.0,3.9,79.0,5.9,'1111122,1111122,1111122' 
LUMCON,ioos:station:LUMCON:102:1,2019-04-02T19:15:00Z,29.1870,-90.6093,0.0,1.9,93.0,5.0,'1111122,1111122,1111122' 
LUMCON,ioos:station:LUMCON:102:1,2019-04-02T19:30:00Z,29.1870,-90.6093,0.0,2.9,91.0,3.1,'1111122,1111122,1111122' 
LUMCON,ioos:station:LUMCON:102:1,2019-04-02T19:45:00Z,29.1870,-90.6093,0.0,2.7,124.0,2.9,'1111122,1111122,1111122' 
LUMCON,ioos:station:LUMCON:102:1,2019-04-02T20:00:00Z,29.1870,-90.6093,0.0,2.5,111.0,2.6,'1111122,1111122,1111122' 
LUMCON,ioos:station:LUMCON:102:1,2019-04-02T20:15:00Z,29.1870,-90.6093,0.0,3.1,101.0,3.3,'1111122,1111122,1111122' 
LUMCON,ioos:station:LUMCON:102:1,2019-04-02T20:30:00Z,29.1870,-90.6093,0.0,2.7,118.0,2.8,'1111122,1111122,1111122' 
LUMCON,ioos:station:LUMCON:102:1,2019-04-02T20:45:00Z,29.1870,-90.6093,0.0,2.2,115.0,2.3,'1111122,1111122,1111122' 
LUMCON,ioos:station:LUMCON:102:1,2019-04-02T21:00:00Z,29.1870,-90.6093,0.0,2.5,126.0,2.7,'1111122,1111122,1111122' 
LUMCON,ioos:station:LUMCON:102:1,2019-04-02T21:15:00Z,29.1870,-90.6093,0.0,3.5,200.0,8.3,'1111122,1111122,1111122' 
LUMCON,ioos:station:LUMCON:102:1,2019-04-02T21:30:00Z,29.1870,-90.6093,0.0,3.8,159.0,4.0,'1111122,1111122,1111122' 
LUMCON,ioos:station:LUMCON:102:1,2019-04-02T21:45:00Z,29.1870,-90.6093,0.0,2.8,150.0,5.3,'1111122,1111122,1111122' 
LUMCON,ioos:station:LUMCON:102:1,2019-04-02T22:00:00Z,29.1870,-90.6093,0.0,2.4,168.0,2.5,'1111122,1111122,1111122' 
LUMCON,ioos:station:LUMCON:102:1,2019-04-02T22:15:00Z,29.1870,-90.6093,0.0,1.8,180.0,2.0,'1111122,1111122,1111122' 
LUMCON,ioos:station:LUMCON:102:1,2019-04-02T22:30:00Z,29.1870,-90.6093,0.0,2.4,130.0,2.4,'1111122,1111122,1111122' 
LUMCON,ioos:station:LUMCON:102:1,2019-04-02T22:45:00Z,29.1870,-90.6093,0.0,2.3,150.0,2.3,'1111122,1111122,1111122' 
LUMCON,ioos:station:LUMCON:102:1,2019-04-02T23:00:00Z,29.1870,-90.6093,0.0,2.5,128.0,2.5,'1111122,1111122,1111122' 
LUMCON,ioos:station:LUMCON:102:1,2019-04-02T23:15:00Z,29.1870,-90.6093,0.0,3.6,133.0,3.6,'1111122,1111122,1111122' 
LUMCON,ioos:station:LUMCON:102:1,2019-04-02T23:30:00Z,29.1870,-90.6093,0.0,2.9,166.0,3.0,'1111122,1111122,1111122' 
LUMCON,ioos:station:LUMCON:102:1,2019-04-02T23:45:00Z,29.1870,-90.6093,0.0,1.7,145.0,1.7,'1111122,1111122,1111122' 
LUMCON,ioos:station:LUMCON:102:1,2019-04-03T00:00:00Z,29.1870,-90.6093,0.0,2.1,145.0,2.1,'1111122,1111122,1111122' 
LUMCON,ioos:station:LUMCON:102:1,2019-04-03T00:15:00Z,29.1870,-90.6093,0.0,1.7,134.0,1.8,'1111122,1111122,1111122' 
LUMCON,ioos:station:LUMCON:102:1,2019-04-03T00:30:00Z,29.1870,-90.6093,0.0,2.3,146.0,2.4,'1111122,1111122,1111122' 
LUMCON,ioos:station:LUMCON:102:1,2019-04-03T00:45:00Z,29.1870,-90.6093,0.0,2.2,124.0,2.3,'1111122,1111122,1111122' 
LUMCON,ioos:station:LUMCON:102:1,2019-04-03T01:00:00Z,29.1870,-90.6093,0.0,1.9,156.0,2.1,'1111122,1111122,1111122' 
LUMCON,ioos:station:LUMCON:102:1,2019-04-03T01:15:00Z,29.1870,-90.6093,0.0,1.5,152.0,1.5,'1111122,1111122,1111122' 
LUMCON,ioos:station:LUMCON:102:1,2019-04-03T01:30:00Z,29.1870,-90.6093,0.0,2.3,122.0,2.4,'1111122,1111122,1111122' 
LUMCON,ioos:station:LUMCON:102:1,2019-04-03T01:45:00Z,29.1870,-90.6093,0.0,2.4,122.0,2.5,'1111122,1111122,1111122' 
LUMCON,ioos:station:LUMCON:102:1,2019-04-03T02:00:00Z,29.1870,-90.6093,0.0,2.8,119.0,2.9,'1111122,1111122,1111122' 
LUMCON,ioos:station:LUMCON:102:1,2019-04-03T02:15:00Z,29.1870,-90.6093,0.0,2.6,144.0,2.7,'1111122,1111122,1111122' 
LUMCON,ioos:station:LUMCON:102:1,2019-04-03T02:30:00Z,29.1870,-90.6093,0.0,2.9,142.0,2.9,'1111122,1111122,1111122' 
LUMCON,ioos:station:LUMCON:102:1,2019-04-03T02:45:00Z,29.1870,-90.6093,0.0,2.0,140.0,2.1,'1111122,1111122,1111122' 
LUMCON,ioos:station:LUMCON:102:1,2019-04-03T03:00:00Z,29.1870,-90.6093,0.0,1.7,148.0,1.8,'1111122,1111122,1111122' 
LUMCON,ioos:station:LUMCON:102:1,2019-04-03T03:15:00Z,29.1870,-90.6093,0.0,2.3,163.0,2.4,'1111122,1111122,1111122' 